Hourly Weather Roundup
Issued by NWS Central Illinois

Home | Current Version | Previous Version | Text Only | Print | Product List | Glossary On
Versions: 1 2 3 4 5 6 7 8 9 10 11 12 13 14 15 16 17 18 19 20 21 22 23 24 25 26 27 28 29 30 31 32 33 34 35 36 37 38 39 40 41 42 43 44 45 46 47 48 49 50
000
NZUS43 KILX 191210
HWRILX

AREA WEATHER ROUNDUP
NATIONAL WEATHER SERVICE, LINCOLN IL
700 AM CDT SAT APR 19 2014


CITY           SKY/WX    TMP DP  RH WIND       PRES   REMARKS
BLOOMINGTON    CLEAR     32  27  82 E9        30.33R WCI  24
CHAMPAIGN      CLEAR     39  27  62 NE13      30.31S WCI  31
6HR MIN TEMP:  36; 6HR MAX TEMP:  44;

DANVILLE       CLEAR     36  30  77 CALM      30.31R
6HR MIN TEMP:  33; 6HR MAX TEMP:  41;

DECATUR        CLEAR     37  31  78 E8        30.31S WCI  31
6HR MIN TEMP:  34; 6HR MAX TEMP:  45;

FLORA          NOT AVBL
GALESBURG      PTCLDY    38  29  71 SE8       30.30R WCI  32
JACKSONVILLE   CLEAR     37  33  85 E6        30.30S WCI  33
6HR MIN TEMP:  35; 6HR MAX TEMP:  44;

LACON          CLEAR     34  29  80 CALM      30.33S
6HR MIN TEMP:  32; 6HR MAX TEMP:  39;

LAWRENCEVILLE  CLEAR     48  39  71 NE9       30.30R HAZE
6HR MIN TEMP:  47; 6HR MAX TEMP:  55;

LITCHFIELD     CLEAR     45  33  64 CALM      30.28S
$$


CITY           SKY/WX    TMP DP  RH WIND       PRES   REMARKS
LINCOLN        CLEAR     37  29  72 NE5       30.32S WCI  34
6HR MIN TEMP:  35; 6HR MAX TEMP:  45;

MACOMB         CLEAR     37  31  80 E5        30.32R WCI  33
MATTOON          N/A     41  33  73 E5        30.30R
6HR MIN TEMP:  38; 6HR MAX TEMP:  46;

MT CARMEL AP   CLEAR     50  41  71 NE8       30.29R
OLNEY-NOBLE AP CLEAR     45  37  76 NE6       30.29S
PARIS          CLEAR     42  32  69 NE6       30.32S
6HR MIN TEMP:  40; 6HR MAX TEMP:  47;

PEORIA         CLEAR     40  25  55 E9        30.32S WCI  34
6HR MIN TEMP:  39; 6HR MAX TEMP:  44;

PONTIAC        CLEAR     37  32  81 E5        30.34R WCI  34
RANTOUL        CLEAR     38  29  70 CALM      30.34R
6HR MIN TEMP:  36; 6HR MAX TEMP:  43;

ROBINSON       CLEAR     46  41  83 NE6       30.32R
6HR MIN TEMP:  44; 6HR MAX TEMP:  52;

SPRINGFIELD    CLEAR     39  31  72 NE7       30.31R WCI  34
6HR MIN TEMP:  39; 6HR MAX TEMP:  50;

TAYLORVILLE    CLEAR     41  32  70 E8        30.30R
$$

...REGIONAL REPORTS...


CITY           SKY/WX    TMP DP  RH WIND       PRES   REMARKS
CHICAGO O`HARE FAIR      38  28  67 NE9       30.37S WCI  31
KANKAKEE       CLEAR     36  32  85 NE8       30.35S WCI  30
MOLINE         MOCLDY    37  30  75 E9        30.31R WCI  30
MOUNT VERNON   CLEAR     48  34  57 NE6       30.28S
PITTSFIELD     CLEAR     43  35  74 E6        30.29S
QUINCY         CLEAR     44  33  65 SE9       30.27R
ROCKFORD       PTCLDY    36  27  69 E9        30.36S WCI  29
$$


CITY           SKY/WX    TMP DP  RH WIND       PRES   REMARKS
BURLINGTON     PTCLDY    40  31  70 SE10      30.28R WCI  33
CEDAR RAPIDS   MOCLDY    37  30  75 E12       30.26R WCI  29
DES MOINES     MOCLDY    49  33  54 E8        30.16S
KIRKSVILLE     CLEAR     45  36  70 E9        30.23R
OTTUMWA        PTCLDY    42  36  79 SE9       30.23R HAZE
ST LOUIS       MOCLDY    49  39  68 E7        30.28R
$$


CITY           SKY/WX    TMP DP  RH WIND       PRES   REMARKS
TERRE HAUTE    CLEAR     42  35  76 NE3       30.31R
EVANSVILLE     CLEAR     53  40  61 NE5       30.27R
INDIANAPOLIS   MOSUNNY   43  35  73 NE10      30.32R
LAFAYETTE      CLEAR     37  28  70 E7        30.34R WCI  32
MADISON        PTCLDY    34  26  72 E6        30.38R WCI  29
MILWAUKEE      PTCLDY    34  29  82 E12       30.43R WCI  25
$$




USA.gov is the U.S. government's official web portal to all federal, state and local government web resources and services.